This demonstration page uses our WeatherBlox Daily Observations layout. Learn more.

Left ArrowRight Arrow

39.51506, -84.39828

Hourly Observations for April 21, 2016

Temp ( °F °C ) Dew Point ( °F °C ) Humidity (%) Winds ( mph kmh ) Pressure ( in mb ) Visibility ( mi km ) Precip ( " mm )
12:15 am 00:15 Partly Cloudy 67 19.5 47 8.2 48 48 N N/A 29.94 1014 10 16 N/A
12:35 am 00:35 Mostly Cloudy 66 19 48 9 52 52 S 8 13 29.94 1014 10 16 N/A
12:55 am 00:55 Cloudy 69 20.5 47 8.6 47 47 N N/A 29.94 1014 10 16 N/A
1:15 am 01:15 Mostly Cloudy 69 20.8 46 7.7 43 43 undefined N/A 29.94 1014 10 16 N/A
1:35 am 01:35 Cloudy with Light Rain 64 18 48 9.1 56 56 undefined N/A 29.94 1014 10 16 N/A
1:55 am 01:55 Mostly Cloudy 64 18 49 9.6 58 58 undefined N/A 29.94 1014 10 16 N/A
2:15 am 02:15 Mostly Cloudy 64 17.6 50 9.9 61 61 NNW 8 13 29.94 1014 10 16 N/A
2:35 am 02:35 Mostly Cloudy 70 20.9 46 7.8 43 43 NNW 15 24 29.94 1014 10 16 N/A
2:55 am 02:55 Partly Cloudy 69 20.8 49 9.2 48 48 NNW 12 19 29.94 1014 10 16 N/A
3:15 am 03:15 Mostly Cloudy 69 20.8 51 10.5 52 52 NNW 8 13 29.94 1014 10 16 N/A
3:35 am 03:35 Cloudy 69 20.8 51 10.8 53 53 undefined N/A 29.91 1013 10 16 N/A
3:55 am 03:55 Cloudy 69 20.8 53 11.5 55 55 undefined N/A 29.91 1013 10 16 N/A
4:15 am 04:15 Cloudy 67 19.5 52 11.2 59 59 undefined N/A 29.91 1013 10 16 N/A
4:35 am 04:35 Mostly Cloudy 64 18 52 10.9 63 63 NNE 6 9 29.91 1013 10 16 N/A
4:55 am 04:55 Cloudy 64 18 52 11 64 64 NNE 5 7 29.91 1013 10 16 N/A
5:15 am 05:15 Cloudy 63 17.3 51 10.7 65 65 N N/A 29.91 1013 10 16 N/A
5:35 am 05:35 Mostly Cloudy 62 16.6 53 11.5 72 72 N N/A 29.91 1013 10 16 N/A
5:55 am 05:55 Mostly Cloudy 61 16 53 11.5 75 75 N N/A 29.91 1013 10 16 N/A
6:15 am 06:15 Mostly Cloudy 61 16.2 53 11.6 74 74 undefined N/A 29.91 1013 10 16 N/A
6:35 am 06:35 Clear 61 16 53 11.4 74 74 SSW 3 6 29.91 1013 10 16 N/A
6:55 am 06:55 Partly Cloudy 60 15.3 53 11.4 78 78 SSW 3 6 29.91 1013 10 16 N/A
7:15 am 07:15 Cloudy 60 15.3 54 12.3 82 82 undefined N/A 29.91 1013 10 16 N/A
7:35 am 07:35 Cloudy 61 16 53 11.8 76 76 undefined N/A 29.91 1013 10 16 N/A
7:55 am 07:55 Cloudy 62 16.5 54 12.1 75 75 N N/A 29.94 1014 10 16 N/A
8:15 am 08:15 Cloudy 62 16.4 55 12.7 79 79 undefined N/A 29.91 1013 10 16 N/A
8:35 am 08:35 Mostly Cloudy 62 16.6 55 12.6 77 77 undefined N/A 29.91 1013 10 16 N/A
8:55 am 08:55 undefined N/A N/A N/A undefined N/A N/A N/A N/A
9:15 am 09:15 undefined N/A N/A N/A undefined N/A N/A N/A N/A
9:35 am 09:35 undefined N/A N/A N/A undefined N/A N/A N/A N/A
9:55 am 09:55 Cloudy 69 20.8 53 11.4 55 55 WSW 5 7 29.91 1013 N/A N/A
10:15 am 10:15 Cloudy with Drizzle 69 20.8 51 10.7 53 53 WSW 8 13 29.91 1013 10 16 N/A
10:35 am 10:35 Cloudy 69 20.8 52 11.3 55 55 WSW 13 20 29.94 1014 10 16 N/A
10:55 am 10:55 Cloudy with Light Rain 64 18 52 10.9 63 63 WSW 7 11 29.94 1014 10 16 N/A
11:15 am 11:15 Cloudy with Light Rain 67 19.5 55 12.5 64 64 SW 5 7 29.94 1014 10 16 N/A
11:35 am 11:35 Cloudy 67 19.5 53 11.9 62 62 undefined N/A 29.94 1014 10 16 N/A
11:55 am 11:55 Cloudy 69 20.8 55 13 61 61 undefined N/A 29.94 1014 10 16 N/A
12:15 pm 12:15 Cloudy 69 20.8 55 12.8 60 60 undefined N/A 29.91 1013 10 16 N/A
12:35 pm 12:35 Cloudy 69 20.8 54 12.4 59 59 undefined N/A 29.94 1014 10 16 N/A
12:55 pm 12:55 Cloudy 69 20.8 54 12 57 57 undefined N/A 29.91 1013 10 16 N/A
1:15 pm 13:15 Cloudy with Light Rain 69 20.8 55 12.5 59 59 undefined N/A 29.91 1013 10 16 N/A
1:35 pm 13:35 Mostly Cloudy 69 20.8 55 12.5 59 59 undefined N/A 29.91 1013 10 16 N/A
1:55 pm 13:55 Mostly Cloudy 69 20.8 53 11.6 56 56 undefined N/A 29.88 1012 10 16 N/A
2:15 pm 14:15 Mostly Cloudy 69 20.8 51 10.3 51 51 SSW 12 19 29.88 1012 10 16 N/A
2:35 pm 14:35 Cloudy 71 21.6 51 10.3 49 49 undefined N/A 29.88 1012 10 16 N/A
2:55 pm 14:55 Cloudy 71 21.6 51 10.7 50 50 SW 8 13 29.88 1012 10 16 N/A
3:15 pm 15:15 Cloudy with Light Rain 69 20.8 50 10.2 51 51 undefined N/A 29.88 1012 10 16 N/A
3:35 pm 15:35 Mostly Cloudy 73 23 52 11.1 47 47 undefined N/A 29.85 1011 10 16 N/A
3:55 pm 15:55 Cloudy with Rain 68 20 56 13.1 65 65 undefined N/A 29.88 1012 5 8 N/A
4:15 pm 16:15 Cloudy 67 19.5 57 14.1 71 71 undefined N/A 29.88 1012 10 16 N/A
4:35 pm 16:35 Cloudy 69 20.8 57 13.8 64 64 WSW 14 22 29.85 1011 10 16 N/A
4:55 pm 16:55 Partly Cloudy 69 20.8 53 11.5 55 55 WSW 14 22 29.85 1011 10 16 N/A
5:15 pm 17:15 Partly Cloudy 69 20.8 50 9.9 50 50 SSW 25 41 29.88 1012 10 16 N/A
5:35 pm 17:35 Mostly Cloudy 69 20.8 50 10.2 51 51 SSW 29 46 29.88 1012 10 16 N/A
5:55 pm 17:55 Cloudy with Rain 63 17.3 52 11 67 67 SSW 17 28 29.88 1012 10 16 N/A
6:15 pm 18:15 Cloudy with Drizzle 63 17 52 11.3 69 69 SSW 14 22 29.88 1012 10 16 N/A
6:35 pm 18:35 Cloudy 63 17 53 11.5 70 70 undefined N/A 29.85 1011 10 16 N/A
6:55 pm 18:55 Cloudy with Light Rain 63 17 53 11.5 70 70 undefined N/A 29.85 1011 10 16 N/A
7:15 pm 19:15 Cloudy 62 16.8 52 11.2 70 70 undefined N/A 29.85 1011 10 16 N/A
7:35 pm 19:35 Mostly Cloudy 63 17 52 11.1 68 68 undefined N/A 29.85 1011 10 16 N/A
7:55 pm 19:55 Mostly Cloudy 62 16.7 52 10.9 69 69 undefined N/A 29.85 1011 10 16 N/A
8:15 pm 20:15 Mostly Cloudy 62 16.6 53 11.7 73 73 undefined N/A 29.88 1012 10 16 N/A
8:35 pm 20:35 Cloudy 62 16.6 52 10.9 69 69 undefined N/A 29.88 1012 10 16 N/A
8:55 pm 20:55 Partly Cloudy 62 16.6 52 10.9 69 69 undefined N/A 29.88 1012 10 16 N/A
9:15 pm 21:15 Clear 62 16.6 51 10.6 68 68 undefined N/A 29.88 1012 10 16 N/A
9:35 pm 21:35 Clear 62 16.6 51 10.6 68 68 undefined N/A 29.88 1012 10 16 N/A
9:55 pm 21:55 Clear 62 16.6 51 10.8 69 69 undefined N/A 29.88 1012 10 16 N/A
10:15 pm 22:15 Clear 61 16 52 11.1 73 73 N N/A 29.88 1012 10 16 N/A
10:35 pm 22:35 Clear 60 15.5 52 11 75 75 undefined N/A 29.88 1012 10 16 N/A
10:55 pm 22:55 Clear 60 15.3 53 11.5 78 78 N N/A 29.88 1012 10 16 N/A
11:15 pm 23:15 Clear 60 15.3 53 11.8 80 80 undefined N/A 29.88 1012 10 16 N/A
11:35 pm 23:35 Clear 57 14.1 51 10.8 81 81 undefined N/A 29.91 1013 10 16 N/A
11:55 pm 23:55 Partly Cloudy 57 13.8 51 10.7 82 82 N N/A 29.91 1013 10 16 N/A

Powered by AerisWeather